RH
90 90 90 90 90 87 81 72 68 65 63 61 58 57 56 54 53 53 54 53 52 52 52 55 56 61 64 67 65 72 82 89 89 89 89 90 90 91 90 90 89 89 88 86 82 78 76 75 76 79 82 85 88 89 89 88 85 83 81 79 76 74 71 68 66 63 60 56 57
89 91 91 90 89 89 86 78 71 67 65 63 61 59 58 58 58 58 57 56 56 56 58 60 62 65 67 67 69 77 86 89 91 91 91 90 91 92 92 92 93 92 90 85 80 78 78 79 82 86 89 90 90 89 88 86 83 81 79 76 74 71 68 66 64 62 59 57 59
86 89 90 90 90 89 87 81 75 70 66 65 63 61 60 59 59 58 58 58 58 60 62 65 67 69 70 68 72 79 87 91 92 93 93 92 93 93 93 93 94 93 90 85 82 82 84 87 89 91 91 91 90 88 86 84 81 79 76 74 71 69 67 65 63 60 58 58 60
88 88 88 88 89 90 88 84 79 74 70 68 65 64 63 62 61 61 61 61 61 62 64 67 70 71 70 70 76 83 89 92 91 93 94 94 93 93 93 94 94 93 90 87 87 88 90 92 92 91 91 90 88 86 84 81 79 77 74 72 69 67 66 64 62 60 58 59 61
92 90 86 81 82 83 84 85 82 78 76 74 70 68 67 66 65 65 64 63 63 64 66 69 71 71 72 74 80 85 89 90 90 92 94 94 93 93 93 94 94 93 91 90 91 91 92 92 91 90 89 87 85 83 81 79 77 75 73 71 69 68 66 65 63 61 59 60 61
92 91 89 83 80 78 77 77 81 83 81 77 73 71 70 69 69 69 68 66 67 68 71 73 72 71 72 76 78 81 82 83 86 90 94 94 93 93 93 93 93 92 92 92 92 92 91 90 89 87 85 83 82 81 80 78 77 75 74 73 71 69 68 66 64 62 61 61 61
93 93 92 90 86 83 79 73 72 73 74 71 71 71 71 72 72 73 75 76 79 81 83 83 76 72 69 70 70 71 74 79 86 91 93 93 92 92 92 92 92 91 91 92 91 91 90 88 85 83 82 80 80 80 80 79 77 76 75 74 72 71 70 68 66 64 63 61 60
93 93 93 93 92 90 87 81 73 69 67 68 68 70 71 73 74 77 82 88 89 90 91 88 79 71 66 64 65 69 75 84 90 92 92 93 92 92 91 92 92 91 91 91 90 89 88 86 83 80 79 78 79 79 80 79 78 77 76 75 74 72 71 70 68 66 64 61 59
93 93 92 91 92 93 92 90 85 80 76 75 74 75 75 75 77 81 86 91 89 90 89 84 75 69 66 65 70 77 85 90 92 92 93 93 92 91 91 91 91 91 91 90 89 87 86 84 82 80 79 79 80 80 80 80 79 78 77 76 75 74 73 71 69 67 64 60 58
93 92 91 89 90 91 91 91 91 90 88 87 87 86 86 85 84 85 88 90 90 89 85 76 72 70 71 74 81 88 92 92 92 93 93 93 92 91 91 91 91 91 90 89 88 86 85 83 83 82 82 82 82 82 82 81 80 79 78 77 76 75 73 72 69 66 62 59 56
93 93 92 90 88 87 88 88 88 89 90 91 91 91 91 91 89 86 84 84 84 81 78 74 74 76 81 86 91 93 93 93 93 93 93 93 92 91 91 91 91 91 91 91 89 87 86 85 85 86 86 85 84 84 83 82 81 80 79 77 76 75 73 70 67 64 61 58 55
92 92 92 91 89 86 85 84 84 85 86 88 89 90 90 90 86 81 76 75 76 76 77 79 82 86 90 94 94 94 94 94 94 94 94 93 93 92 92 92 93 93 93 93 92 91 90 90 89 89 88 87 86 85 83 82 81 80 79 77 75 73 71 68 66 63 61 59 57
89 91 92 92 90 88 85 83 80 79 80 82 85 87 88 87 83 77 73 72 75 78 81 84 88 90 92 94 94 94 94 94 94 94 94 94 93 93 93 93 93 94 94 94 94 93 92 92 91 90 89 88 86 85 84 83 81 80 78 76 73 71 69 67 66 65 64 63 59
85 88 90 92 91 89 87 85 81 77 75 75 79 83 86 86 84 80 77 75 77 79 81 83 85 86 88 90 93 94 94 94 93 93 93 93 93 93 93 92 93 93 94 94 93 93 92 92 91 90 89 88 86 85 83 83 81 79 76 73 70 69 68 67 68 68 68 66 62
85 85 87 90 91 91 89 87 84 81 76 73 75 78 82 84 85 84 82 80 80 80 80 81 81 82 84 87 91 93 94 94 93 93 92 92 92 92 92 92 92 92 93 93 92 92 91 91 90 88 87 86 85 84 83 83 81 78 74 69 68 68 68 69 71 71 70 68 62
86 84 84 85 88 90 91 90 88 85 82 78 76 77 79 81 82 82 82 81 81 81 82 82 82 82 82 85 89 92 94 94 94 93 92 92 92 92 91 91 91 90 90 90 90 90 89 88 87 86 85 84 83 83 83 82 80 77 72 68 67 68 70 71 72 72 70 68 61
89 86 84 83 84 86 89 90 90 88 87 84 82 80 80 80 81 81 81 81 80 81 82 84 83 82 81 81 84 88 92 94 94 93 93 92 92 91 91 90 89 88 87 87 86 85 83 83 82 82 81 81 81 81 82 81 79 75 72 68 68 70 71 72 72 71 70 66 60
89 88 86 83 83 83 85 87 88 89 89 88 86 85 83 82 82 82 82 81 81 82 83 84 84 82 80 78 80 83 87 91 92 93 93 92 92 91 90 90 88 86 85 83 80 78 76 75 75 76 77 78 79 79 78 77 75 73 71 69 70 70 71 72 72 71 69 63 58
87 89 88 86 84 82 82 83 84 86 87 88 88 87 86 85 84 83 82 81 81 82 83 85 86 85 83 80 80 81 84 88 90 91 92 91 91 90 90 88 86 84 82 80 77 74 72 71 72 73 75 77 78 77 75 72 70 69 69 69 70 71 71 72 72 71 68 62 57
79 85 88 88 86 84 82 81 81 82 83 84 85 86 86 86 85 84 83 82 81 82 83 85 86 87 87 86 84 83 84 86 89 90 90 90 89 89 88 86 84 82 80 79 78 77 75 75 75 76 77 78 78 76 73 68 65 65 66 68 69 71 72 74 75 73 69 62 56
66 76 83 88 88 87 85 83 81 81 81 82 82 83 84 84 85 85 85 85 84 84 84 84 85 87 88 89 88 88 87 87 88 89 88 88 87 86 84 83 81 80 79 79 81 81 81 81 81 81 82 82 80 76 72 66 63 62 64 66 69 71 74 76 77 74 69 61 56
51 61 72 81 86 87 87 86 84 82 81 82 83 83 83 83 83 84 85 86 86 86 86 85 85 86 86 88 88 89 88 88 87 87 86 85 83 82 82 81 81 81 81 83 85 86 87 87 87 87 86 85 82 79 74 69 66 65 66 67 70 72 75 77 77 74 67 59 54
39 47 57 68 77 84 87 88 87 85 84 83 84 85 85 85 84 84 84 84 85 85 85 85 85 85 85 86 86 86 86 86 85 84 83 82 81 81 81 83 84 86 87 89 90 90 90 91 90 90 88 87 85 82 78 74 72 71 70 70 70 71 72 74 73 69 63 56 53
29 35 42 52 63 73 81 86 87 87 87 86 86 85 86 86 86 86 85 85 84 84 84 84 84 84 84 84 84 83 83 83 82 81 81 80 81 82 84 86 88 90 91 91 91 90 90 90 90 90 90 89 88 85 82 78 76 75 73 72 70 68 68 68 67 64 59 54 53
20 25 30 37 47 58 69 79 84 87 88 88 88 88 87 87 87 87 87 87 86 84 84 83 82 82 82 83 82 82 81 81 80 80 79 80 82 84 87 89 91 92 92 91 90 90 90 90 90 90 90 90 89 87 84 81 78 76 75 72 69 66 65 64 63 61 58 55 54
12 16 20 24 31 40 52 64 75 83 87 88 89 89 89 89 89 89 89 89 88 86 85 83 82 82 83 83 83 83 83 83 82 82 82 82 84 87 89 91 92 92 92 91 91 91 90 90 91 91 91 91 90 88 86 82 80 79 77 74 70 67 65 64 64 62 60 57 56
7 10 13 16 19 24 32 43 56 69 80 86 88 89 90 90 91 91 91 91 91 90 88 87 86 86 86 87 88 88 89 89 89 89 88 88 90 91 92 93 93 93 93 92 92 91 91 91 91 91 91 91 90 88 86 83 82 81 80 77 74 70 68 67 66 64 62 59 58
6 7 8 10 12 15 18 23 33 46 60 74 82 87 89 90 90 91 91 92 92 92 92 91 91 90 90 90 90 91 92 93 93 93 93 93 93 94 94 94 94 94 93 93 92 92 92 92 91 91 91 91 90 88 86 83 81 81 81 80 77 74 72 70 68 66 62 60 58
6 6 7 8 9 11 12 13 17 24 34 47 63 74 83 87 89 90 90 91 91 92 92 93 92 92 92 92 91 91 92 93 94 94 94 94 94 94 94 94 94 94 94 93 93 92 92 91 91 91 91 92 91 90 87 84 82 82 82 82 80 77 75 73 70 66 62 59 58
6 6 7 7 8 9 10 11 12 14 17 24 35 50 64 76 83 87 89 90 91 91 91 92 92 93 92 92 92 92 92 93 94 94 94 94 94 94 94 95 95 94 94 93 92 91 91 90 90 91 91 92 91 90 88 87 87 86 86 85 82 80 78 75 71 67 63 59 58
7 7 7 7 8 9 10 11 12 12 12 14 19 27 38 52 66 76 83 87 89 90 91 91 92 92 92 92 92 92 92 92 93 93 94 94 94 94 94 94 94 94 94 94 93 92 91 90 90 90 91 92 92 92 91 90 89 88 87 86 84 82 80 77 73 68 63 60 58
7 7 7 7 8 9 10 11 12 12 13 13 14 17 22 30 43 56 68 77 83 87 89 90 91 91 91 91 91 91 92 92 92 92 93 94 94 94 94 94 94 94 94 94 94 94 94 93 94 94 94 94 93 92 91 90 89 89 88 87 85 83 81 79 75 70 65 61 58
7 7 7 8 8 9 10 11 12 13 13 13 14 14 16 19 26 36 48 61 71 78 83 87 88 90 90 90 90 90 90 91 91 92 92 93 93 94 94 94 94 94 94 94 95 94 94 95 94 94 94 94 92 91 90 89 90 90 89 88 86 84 82 80 76 71 66 62 59
8 8 7 8 8 9 10 11 13 14 14 14 14 15 15 16 19 24 31 41 54 64 73 80 84 86 88 89 90 90 89 90 90 91 91 92 93 93 94 94 94 94 94 94 94 94 94 94 94 94 93 93 92 90 89 89 89 90 89 88 86 84 82 79 74 69 65 62 60
8 8 7 8 8 9 10 12 13 14 15 15 15 15 16 17 18 19 22 27 37 47 59 70 77 82 85 87 88 89 89 89 89 90 91 91 92 92 93 93 94 93 93 94 94 94 94 94 94 94 93 92 91 89 88 88 88 88 87 86 84 82 78 74 69 65 62 61 61
9 8 8 7 8 9 11 12 14 15 16 16 16 16 16 17 18 19 20 21 26 33 43 55 67 76 82 86 87 88 89 89 89 90 90 90 91 92 92 93 93 93 93 93 93 93 93 93 94 93 93 92 90 89 88 86 85 85 84 83 81 78 74 69 66 64 63 63 63
9 8 8 7 8 9 10 13 15 16 17 18 18 17 17 18 18 19 20 20 22 25 31 40 53 66 77 85 88 89 89 90 90 90 90 90 90 90 91 92 93 93 93 93 93 92 92 92 92 92 92 92 90 89 87 85 83 82 81 80 78 76 73 69 67 66 66 66 66
9 9 8 8 8 8 10 12 15 17 18 19 19 19 18 18 19 20 21 21 22 23 25 29 39 51 65 78 85 89 90 90 90 90 90 90 90 90 90 91 92 93 93 93 92 92 91 90 90 91 91 91 90 88 86 83 81 79 78 78 77 75 73 71 69 68 68 68 68
10 9 8 8 8 8 9 11 14 17 19 21 20 20 19 18 19 20 21 22 23 24 24 25 30 38 49 64 77 85 90 92 91 91 91 90 90 90 90 91 92 92 93 93 92 92 91 90 89 90 90 90 90 88 86 83 81 79 78 77 75 74 72 71 70 69 68 68 68
10 9 8 8 8 8 9 11 14 17 20 22 22 21 20 19 19 19 20 22 23 24 25 25 27 30 36 47 61 74 85 91 92 92 91 91 91 90 90 91 91 92 92 93 93 92 92 91 90 89 89 89 89 88 87 85 83 81 80 78 76 74 73 71 70 69 69 69 69
10 9 9 8 8 8 9 11 13 16 19 22 23 22 21 19 18 19 20 22 23 24 25 26 26 27 30 35 45 58 71 83 88 92 92 92 91 91 91 91 91 91 91 92 93 93 93 92 92 91 90 89 89 89 88 87 86 85 83 82 80 78 76 74 73 72 71 71 72